Location: Shepherdstown, WV
(39.4326°N, 77.8042°W)
Time: 14:20:54
(UTC-04:00)

Tiros 1 despin weight - Pass Details

Date: 01 August 2021
Orbit: 593 x 641 km, 48.2° (Epoch: 22 September)

Event Time Altitude Azimuth Distance (km) Brightness Sun altitude
Rises 21:51:53 0° 284° (WNW) 2,927 ? -15.4°
Reaches altitude 10° 21:55:27 10° 256° (WSW) 2,005 ? -15.9°
Maximum altitude 21:57:28 13° 230° (SW) 1,821 ? -16.2°
Drops below altitude 10° 21:59:28 10° 204° (SSW) 1,988 ? -16.5°
Enters shadow 22:00:30 - 193° (SSW) 2,193 ? -16.7°
